Powrót do katalogu

FENGYUN 1C DEB

LostPO
NORAD 32104·DEBRIS·🇨🇳 China

Wystrzelony May 10, 1999 z Taiyuan Satellite Launch Center

Loading…

Następne Przeloty (najbliższe 24 godziny)

TLE

NieaktualneSource: Space-Track

Epoka: Apr 1, 2021, 00:24 UTC

1 32104U 99025CQW 21091.01709912  .00000940  00000-0  66667-3 0  9994
2 32104  97.6546 184.5155 0324838 343.0779  15.9740 13.77062160688594

Śledź FENGYUN 1C DEB w czasie rzeczywistym z AllMySat

Download on the App Store